Location: *
(49.6619°S, 177.4603°W)
Time: 12:27:05
(UTC+00:00)

Cosmos 1666 - Pass Details

Date: 31 January 2023
Orbit: 480 x 496 km, 82.5° (Epoch: 28 March)

Event Time Altitude Azimuth Distance (km) Brightness Sun altitude
Rises 09:55:20 0° 190° (S) 2,664 7.6 -17.2°
Reaches altitude 10° 09:57:30 10° 189° (S) 1,768 6.5 -17.4°
Maximum altitude 10:01:23 88° 99° (E) 526 2.6 -17.7°
Enters shadow 10:02:35 43° 12° (NNE) 737 3.0 -17.8°
